Vertical_Velocity
-1 -1 -3 4 -3 1 -3 -2 -1 -1 -3 -2 1 -3 -3 -2 -2 -0 -2 -1 1 2
3 -5 1 -4 3 -9 -2 0 -3 -4 -1 -0 -1 -5 -2 -1 0 -1 -1 2 -0 -2
-4 4 -0 -1 -3 -2 -3 -4 -3 -2 -1 -1 -3 -2 -1 1 -2 -2 0 -2 -1 -1
1 -1 -1 -1 -2 -3 -4 -2 -3 -1 -1 -3 -3 0 1 -2 -1 0 -1 -0 0 -0
-3 -4 -1 -1 -2 -3 -3 -1 -2 -1 -2 -3 1 2 -0 -3 -0 -1 0 2 1 -1
1 -1 2 -1 -1 -4 0 -2 -1 -3 -1 1 1 0 -3 -2 -1 0 1 1 -1 -0
-2 2 -2 -1 -1 -2 -1 -1 -2 -0 2 -0 0 -2 -2 -1 0 1 2 0 1 -0
-0 1 1 -1 -0 1 -1 -1 1 1 -0 -0 -1 -2 -0 -0 1 1 0 0 -1 -0
2 3 0 -0 3 -3 0 -1 1 0 -0 -1 -1 -1 -0 1 1 0 -0 -1 -1 -2
-0 4 -0 -0 3 0 1 -1 1 -0 -0 -1 -1 -1 1 1 1 1 0 -1 -1 -1
3 3 0 3 3 1 1 -0 1 -1 0 -2 -1 -0 1 0 2 -0 0 -1 -1 -1
4 3 3 1 2 2 -1 0 1 -2 0 -0 1 1 1 1 0 1 1 -4 -2 -2
6 3 0 1 2 0 -0 -1 2 -4 0 3 -0 2 2 0 -0 -1 -2 5 1 -5
3 2 2 3 1 -0 -1 0 -0 2 2 2 -1 1 1 1 1 -1 -2 -1 2 -0
Height
3056 3057 3058 3057 3057 3057 3058 3057 3054 3053 3053 3053 3051 3049 3048 3047 3047 3045 3043 3042 3041 3040
3052 3054 3053 3053 3053 3053 3053 3051 3050 3050 3049 3048 3047 3045 3045 3045 3044 3042 3041 3040 3039 3037
3047 3048 3049 3049 3049 3049 3048 3047 3046 3046 3045 3044 3043 3043 3043 3042 3041 3040 3039 3038 3037 3036
3043 3044 3046 3046 3046 3045 3043 3043 3042 3042 3041 3041 3041 3040 3040 3039 3039 3038 3037 3035 3035 3035
3039 3040 3042 3041 3041 3040 3038 3038 3038 3038 3038 3038 3038 3037 3037 3037 3036 3035 3034 3034 3034 3033
3034 3035 3036 3035 3035 3035 3033 3033 3034 3034 3035 3035 3035 3034 3034 3034 3033 3032 3032 3033 3032 3031
3029 3029 3029 3030 3029 3030 3029 3028 3030 3030 3031 3031 3031 3031 3032 3030 3030 3030 3031 3030 3030 3028
3022 3022 3022 3023 3023 3023 3024 3023 3026 3027 3027 3027 3028 3028 3028 3027 3028 3028 3028 3028 3027 3025
3014 3015 3016 3017 3017 3017 3019 3020 3022 3022 3023 3024 3024 3025 3024 3025 3025 3025 3025 3025 3023 3021
3006 3008 3009 3010 3011 3013 3014 3015 3017 3018 3019 3020 3021 3021 3021 3021 3022 3021 3021 3020 3019 3018
2999 3000 3002 3003 3005 3007 3009 3011 3012 3013 3015 3016 3017 3018 3018 3018 3019 3018 3017 3016 3015 3013
2991 2993 2995 2997 2999 3002 3004 3006 3007 3009 3012 3012 3013 3014 3014 3014 3014 3014 3014 3012 3010 3009
2984 2987 2990 2992 2994 2996 2999 3001 3003 3005 3008 3009 3009 3011 3011 3010 3010 3009 3009 3009 3005 3004
2980 2982 2984 2986 2988 2991 2994 2997 2999 3002 3004 3005 3006 3007 3007 3006 3005 3004 3003 3002 3002 2999